Regional Weather Roundup
Issued by NWS Little Rock, AR

Home | Current Version | Previous Version | Text Only | Print | Product List | Glossary On
Versions: 1 2 3 4 5 6 7 8 9 10 11 12 13 14 15 16 17 18 19 20 21 22 23 24 25 26 27 28 29 30 31 32 33 34 35 36 37 38 39 40 41 42 43 44 45 46 47 48 49 50
000
ASUS44 KLZK 290305
RWRLZK

WEATHER ROUNDUP FOR ARKANSAS
NATIONAL WEATHER SERVICE LITTLE ROCK AR
1000 PM CDT THU AUG 28 2014

NOTE: "FAIR" INDICATES FEW OR NO CLOUDS BELOW 12,000 FEET WITH NO
SIGNIFICANT WEATHER AND/OR OBSTRUCTIONS TO VISIBILITY.

ARZ001-003-010-029-290400-
NORTHWEST ARKANSAS

CITY           SKY/WX    TMP DP  RH WIND       PRES   REMARKS
FAYETTEVILLE   CLEAR     71  65  81 CALM      29.97R
FORT SMITH     CLEAR     82  67  60 SE3       29.91R
HARRISON       CLEAR     70  65  84 SW5       29.98S
BENTONVILLE    CLEAR     77  64  65 S5        29.98R
ROGERS         CLEAR     77  65  66 SE7       29.98R
SILOAM SPGS      N/A     75  61  60 E7        29.97S
HIGHFILL       CLEAR     77  63  61 SE8       29.96R
$$

ARZ004-005-016-290400-
NORTH CENTRAL ARKANSAS

CITY           SKY/WX    TMP DP  RH WIND       PRES   REMARKS
BATESVILLE     CLEAR     79  63  57 SE3       29.95S
FLIPPIN        CLEAR     81  59  47 S3        29.96S
MTN HOME       CLEAR     79  61  53 SW5       29.96R
$$

ARZ040-041-290400-
WEST CENTRAL ARKANSAS

CITY           SKY/WX    TMP DP  RH WIND       PRES   REMARKS
MENA           PTCLDY    75  72  88 CALM      29.97R
MOUNT IDA      CLEAR     74  70  87 CALM      29.94R
$$

ARZ009-017-025-026-028-290400-
NORTHEAST ARKANSAS

CITY           SKY/WX    TMP DP  RH WIND       PRES   REMARKS
CORNING          N/A     77  73  88 E5        29.96S
JONESBORO      CLEAR     76  68  76 CALM      29.95S
NEWPORT        CLEAR     78  70  76 SE5       29.96R
WALNUT RIDGE   CLEAR     77  70  78 E6        29.95R
BLYTHEVILLE    PTCLDY    79  75  87 E7        29.96S
$$

ARZ022-023-033-042-044-290400-
CENTRAL ARKANSAS

CITY           SKY/WX    TMP DP  RH WIND       PRES   REMARKS
LITTLE ROCK    CLEAR     80  68  66 SE3       29.95R
N LITTLE ROCK  CLEAR     81  68  63 SE6       29.95R
JACKSONVILLE   PTCLDY    75  69  81 E1        29.95R
SEARCY         CLEAR     73  69  87 CALM      29.96R
RUSSELLVILLE   CLEAR     81  65  58 CALM      29.93R
CLINTON        FAIR      73  68  83 CALM      29.96S
$$

ARZ036-290400-
EAST ARKANSAS

CITY           SKY/WX    TMP DP  RH WIND       PRES   REMARKS
WEST MEMPHIS   CLEAR     78  69  73 CALM      29.95R
$$

ARZ050-053-066-070-073-290400-
SOUTHWEST ARKANSAS

CITY           SKY/WX    TMP DP  RH WIND       PRES   REMARKS
ARKADELPHIA    FAIR      78  76  94 CALM      29.94R
CAMDEN         CLEAR     77  70  78 CALM      29.93R
TEXARKANA      HVY RAIN  77  73  87 SE7G22    29.93R FOG
EL DORADO      PTCLDY    76  72  87 CALM      29.94R
DE QUEEN       CLEAR     76  73  91 CALM      29.91R
$$

ARZ056-057-069-290400-
SOUTHEAST ARKANSAS

CITY           SKY/WX    TMP DP  RH WIND       PRES   REMARKS
PINE BLUFF     CLEAR     75  68  78 CALM      29.95R
STUTTGART      CLEAR     81  66  61 SE6       29.96R
MONTICELLO     CLEAR     75  69  81 CALM      29.94R

$$




USA.gov is the U.S. government's official web portal to all federal, state and local government web resources and services.